Weather in Neiva

Colombia     2°55′47″N   75°16′52″W
temp.,
°C
wind,
m/s
gust,
m/s
humid.,
%
clouds,
%
prec.,
mm/h
press.,
hPa
HPBL,
m
6 march, sat
sat601:00+22s117950 2.0 101323
04:00+21s11829 1.4 101223
07:00+22ssw008112 1.4 101445
10:00+26sw116869 0.0 1015477
13:00+29ssw015656 0.3 1011941
16:00+30ssw235411 0.8 1008802
19:00+26e116632 1.3 101124
22:00+24se117695 1.2 101425
7 march, sun
sun701:00+23sse018298 4.9 101423
04:00+21s1186100 0.6 101325
07:00+22sse1189100 2.1 101527
10:00+22sw3592100 2.9 1017287
13:00+23ssw3486100 4.7 1014383
16:00+24ssw2381100 0.2 1011323
19:00+22w1185100 0.4 101325
22:00+22ne1183100 0.1 101624
8 march, mon
mon801:00+22ene0185100 0.3 101423
04:00+20sw2293100 1.4 101370
07:00+21s1192100 1.9 101552
10:00+24sw127975 0.2 1017423
13:00+24sw128085 0.8 1013201
16:00+27sw356834 0.1 1011458
19:00+24ssw227756 0.3 101344
22:00+22sse127372 0.0 101627
9 march, tue
tue901:00+21sse117045 0.0 101424
04:00+21s117194 0.0 101323
07:00+22ssw117797 0.0 101429
10:00+26ssw116346 0.0 1015478
13:00+30se115123 0.1 1011936
16:00+30wsw115052 0.3 1008791
19:00+25s116569 1.1 101125
22:00+23ese2278100 3.3 101425
10 march, wed
wed1001:00+22ssw1178100 6.3 101325
04:00+21ssw1282100 1.8 101224
07:00+22n1181100 2.2 101445
10:00+25nw116987 0.1 1015478
13:00+28n226381 1.1 1011768
16:00+29wnw125744 1.4 1009689
19:00+25ne126872 2.4 101224
22:00+24e1175100 1.3 101424